This is the latest recevied weather packets stored in our database for station/object DG8SF-13. If no packets are shown the sender has not sent any weather packets the latest 10 day(s).
| Time | Temp. | Humidity | Pressure | Rain* | Wind** | Luminosity | Snow |
|---|---|---|---|---|---|---|---|
| 1777904600 | 25.56° C | 34% | 1010.6 hPa | 0 mm | - | - | - |
| 1777904286 | 26.11° C | 32% | 1010.6 hPa | 0 mm | - | - | - |
| 1777903974 | 26.11° C | 31% | 1010.8 hPa | 0 mm | - | - | - |
| 1777903661 | 26.11° C | 32% | 1010.8 hPa | 0 mm | - | - | - |
| 1777903352 | 26.11° C | 33% | 1011 hPa | 0 mm | - | - | - |
| 1777903039 | 26.11° C | 32% | 1011 hPa | 0 mm | - | - | - |
| 1777902727 | 26.11° C | 32% | 1011 hPa | 0 mm | - | - | - |
| 1777902414 | 25° C | 33% | 1011.1 hPa | 0 mm | - | - | - |
| 1777902103 | 25° C | 34% | 1011 hPa | 0 mm | - | - | - |
| 1777901790 | 25.56° C | 34% | 1011 hPa | 0 mm | - | - | - |
| 1777901479 | 25° C | 34% | 1011.2 hPa | 0 mm | - | - | - |
| 1777901166 | 24.44° C | 34% | 1011.2 hPa | 0 mm | - | - | - |
| 1777900856 | 25° C | 35% | 1011.4 hPa | 0 mm | - | - | - |
| 1777900542 | 23.89° C | 36% | 1011.3 hPa | 0 mm | - | - | - |
| 1777900230 | 23.33° C | 37% | 1011.5 hPa | 0 mm | - | - | - |
| 1777899922 | 24.44° C | 36% | 1011.5 hPa | 0 mm | - | - | - |
| 1777899606 | 24.44° C | 35% | 1011.5 hPa | 0 mm | - | - | - |
| 1777899295 | 23.89° C | 35% | 1011.7 hPa | 0 mm | - | - | - |
| 1777898982 | 23.89° C | 36% | 1011.8 hPa | 0 mm | - | - | - |
| 1777898673 | 23.89° C | 35% | 1011.9 hPa | 0 mm | - | - | - |
| 1777898358 | 23.33° C | 36% | 1011.9 hPa | 0 mm | - | - | - |
| 1777898047 | 23.33° C | 36% | 1011.9 hPa | 0 mm | - | - | - |
| 1777897733 | 22.78° C | 37% | 1011.9 hPa | 0 mm | - | - | - |
| 1777897423 | 22.78° C | 37% | 1012 hPa | 0 mm | - | - | - |
| 1777897110 | 23.33° C | 37% | 1012 hPa | 0 mm | - | - | - |
* Rain latest hour (hover to see other rain measurements)
** Current wind speed in m/s (hover to see current wind gust speed)